Change the Weather History Date:

Wednesday, April 16, 2014

  Actual Average Record
Temperature  
Mean Temperature 26 °F -  
Max Temperature 35 °F 57 °F 81 °F (1976)
Min Temperature 17 °F 35 °F 17 °F (2014)
Degree Days  
Heating Degree Days 39    
Moisture  
Dew Point 24 °F    
Average Humidity 85    
Maximum Humidity 100    
Minimum Humidity 56    
Precipitation  
Precipitation 0.01 in - - ()
Sea Level Pressure  
Sea Level Pressure 30.24 in    
Wind  
Wind Speed 5 mph (SE)    
Max Wind Speed 17 mph    
Max Gust Speed 24 mph    
Visibility 9 miles    
Events      
Averages and records for this station are not official NWS values.
T = Trace of Precipitation, MM = Missing Value Source: NWS Daily Summary

Daily Weather History Graph

Daily Weather History Graph

Search for Another Location

Airport or City:

Trip Planner

Search our weather history database for the weather conditions in past years. The results will help you decide how hot, cold, wet, or windy it might be!

Date:

Astronomy

Apr. 16, 2014 Rise Set
Actual Time 6:03 AM CDT 7:37 PM CDT
Civil Twilight 5:33 AM CDT 8:08 PM CDT
Nautical Twilight 4:55 AM CDT 8:45 PM CDT
Astronomical Twilight 4:15 AM CDT 9:26 PM CDT
Moon 9:25 PM CDT (4/16) 6:48 AM CDT (4/16)
Length of Visible Light 14h 35m
Length of Day
13h 33m
Full, 98% of the Moon is Illuminated
Apr 16
Full
Apr 22
Last Quarter
Apr 29
New
May 6
First Quarter
May 14
Full

Hourly Weather History & Observations

Time (CDT) Temp. Windchill Dew Point Humidity Pressure Visibility Wind Dir Wind Speed Gust Speed Precip Events Conditions
12:15 AM 21.2 °F - 17.6 °F 86% 30.18 in 10.0 mi Calm Calm - N/A   Clear
12:35 AM 21.2 °F - 19.4 °F 93% 30.19 in 10.0 mi Calm Calm - N/A   Clear
12:55 AM 21.2 °F - 17.6 °F 86% 30.19 in 10.0 mi Calm Calm - N/A   Clear
1:15 AM 21.2 °F - 19.4 °F 93% 30.20 in 10.0 mi Calm Calm - N/A   Clear
1:35 AM 21.2 °F - 19.4 °F 93% 30.20 in 10.0 mi Calm Calm - N/A   Clear
1:55 AM 21.2 °F - 19.4 °F 93% 30.20 in 10.0 mi Calm Calm - N/A   Clear
2:15 AM 19.4 °F - 19.4 °F 100% 30.20 in 10.0 mi Calm Calm - N/A   Clear
2:35 AM 21.2 °F - 19.4 °F 93% 30.20 in 10.0 mi Calm Calm - N/A   Clear
2:55 AM 19.4 °F - 19.4 °F 100% 30.21 in 10.0 mi Calm Calm - N/A   Clear
3:15 AM 19.4 °F - 17.6 °F 93% 30.21 in 10.0 mi Calm Calm - N/A   Clear
3:35 AM 19.4 °F - 17.6 °F 93% 30.22 in 10.0 mi Calm Calm - N/A   Clear
3:55 AM 19.4 °F - 17.6 °F 93% 30.22 in 10.0 mi Calm Calm - N/A   Clear
4:15 AM 17.6 °F - 17.6 °F 100% 30.23 in 10.0 mi Calm Calm - N/A   Clear
4:35 AM 17.6 °F - 15.8 °F 93% 30.23 in 10.0 mi Calm Calm - N/A   Clear
4:55 AM 17.6 °F - 15.8 °F 93% 30.23 in 9.0 mi Calm Calm - N/A   Clear
5:15 AM 17.6 °F - 15.8 °F 93% 30.24 in 10.0 mi Calm Calm - N/A   Clear
5:35 AM 17.6 °F - 15.8 °F 93% 30.24 in 8.0 mi Calm Calm - N/A   Partly Cloudy
5:55 AM 17.6 °F - 15.8 °F 93% 30.24 in 8.0 mi Calm Calm - N/A   Clear
6:15 AM 17.6 °F - 17.6 °F 100% 30.25 in 5.0 mi Calm Calm - N/A   Clear
6:35 AM 17.6 °F - 15.8 °F 93% 30.26 in 8.0 mi Calm Calm - N/A   Clear
6:55 AM 19.4 °F - 17.6 °F 93% 30.27 in 10.0 mi Calm Calm - N/A   Partly Cloudy
7:15 AM 21.2 °F - 19.4 °F 93% 30.28 in 10.0 mi Calm Calm - N/A   Partly Cloudy
7:35 AM 23.0 °F - 23.0 °F 100% 30.28 in 10.0 mi Calm Calm - N/A   Mostly Cloudy
7:55 AM 24.8 °F - 23.0 °F 93% 30.29 in 10.0 mi Calm Calm - N/A   Overcast
8:15 AM 26.6 °F 21.2 °F 21.2 °F 80% 30.30 in 10.0 mi ESE 4.6 mph - N/A   Overcast
8:35 AM 28.4 °F 22.2 °F 21.2 °F 74% 30.30 in 10.0 mi ESE 5.8 mph - N/A   Overcast
8:55 AM 30.2 °F 25.4 °F 21.2 °F 69% 30.30 in 10.0 mi SE 4.6 mph - N/A   Overcast
9:15 AM 33.8 °F 26.4 °F 23.0 °F 65% 30.30 in 10.0 mi South 9.2 mph - N/A   Overcast
9:35 AM 33.8 °F 25.8 °F 23.0 °F 65% 30.30 in 10.0 mi South 10.4 mph 19.6 mph N/A   Overcast
9:55 AM 33.8 °F 24.3 °F 23.0 °F 65% 30.30 in 10.0 mi SSE 13.8 mph 19.6 mph N/A   Overcast
10:15 AM 33.8 °F 24.8 °F 23.0 °F 65% 30.30 in 10.0 mi South 12.7 mph 18.4 mph N/A   Overcast
10:35 AM 35.6 °F 26.6 °F 21.2 °F 56% 30.30 in 10.0 mi South 13.8 mph 18.4 mph 0.01 in   Overcast
10:55 AM 33.8 °F 25.3 °F 19.4 °F 56% 30.30 in 10.0 mi South 11.5 mph 19.6 mph 0.01 in   Overcast
11:15 AM 33.8 °F 23.9 °F 24.8 °F 70% 30.30 in 9.0 mi South 15.0 mph - N/A   Overcast
11:35 AM 32.0 °F 21.6 °F 24.8 °F 75% 30.30 in 5.0 mi South 15.0 mph 20.7 mph N/A   Overcast
11:55 AM 32.0 °F 22.5 °F 28.4 °F 87% 30.30 in 3.0 mi South 12.7 mph 17.3 mph N/A   Overcast
12:15 PM 30.2 °F 20.8 °F 28.4 °F 93% 30.29 in 3.0 mi SSE 11.5 mph - N/A   Mostly Cloudy
12:35 PM 30.2 °F 20.2 °F 28.4 °F 93% 30.29 in 3.0 mi SSE 12.7 mph 18.4 mph N/A   Overcast
12:55 PM 30.2 °F 21.3 °F 28.4 °F 93% 30.28 in 1.2 mi SE 10.4 mph - N/A   Overcast
1:15 PM 30.2 °F 21.9 °F 28.4 °F 93% 30.29 in 1.2 mi ESE 9.2 mph - N/A   Overcast
1:35 PM 30.2 °F 21.3 °F 28.4 °F 93% 30.28 in 1.2 mi SE 10.4 mph - N/A   Overcast
1:55 PM 30.2 °F 20.8 °F 30.2 °F 100% 30.28 in 2.5 mi SE 11.5 mph - N/A   Overcast
2:15 PM 30.2 °F 19.8 °F 30.2 °F 100% 30.27 in 1.8 mi SE 13.8 mph - N/A   Overcast
2:35 PM 30.2 °F 19.3 °F 30.2 °F 100% 30.27 in 5.0 mi SE 15.0 mph 19.6 mph N/A   Mostly Cloudy
2:55 PM 32.0 °F 23.6 °F 28.4 °F 87% 30.26 in 7.0 mi ESE 10.4 mph - N/A   Mostly Cloudy
3:15 PM 32.0 °F 21.6 °F 28.4 °F 87% 30.25 in 8.0 mi ESE 15.0 mph - N/A   Overcast
3:35 PM 33.8 °F 23.9 °F 30.2 °F 87% 30.24 in 9.0 mi ESE 15.0 mph - N/A   Overcast
3:55 PM 33.8 °F 23.2 °F 28.4 °F 81% 30.24 in 10.0 mi SE 17.3 mph - N/A   Overcast
4:15 PM 35.6 °F 26.2 °F 26.6 °F 70% 30.23 in 10.0 mi SSE 15.0 mph 20.7 mph N/A   Overcast
4:35 PM 35.6 °F 25.9 °F 24.8 °F 65% 30.23 in 10.0 mi SSE 16.1 mph - N/A   Mostly Cloudy
4:55 PM 35.6 °F 25.9 °F 23.0 °F 60% 30.23 in 10.0 mi SSE 16.1 mph 21.9 mph N/A   Mostly Cloudy
5:15 PM 33.8 °F 25.3 °F 24.8 °F 70% 30.24 in 10.0 mi SE 11.5 mph - N/A   Mostly Cloudy
5:35 PM 33.8 °F 23.9 °F 28.4 °F 81% 30.23 in 10.0 mi SE 15.0 mph - N/A   Mostly Cloudy
5:55 PM 33.8 °F 23.5 °F 28.4 °F 81% 30.21 in 10.0 mi SE 16.1 mph - N/A   Mostly Cloudy
6:15 PM 33.8 °F 24.3 °F 28.4 °F 81% 30.22 in 10.0 mi SE 13.8 mph 24.2 mph N/A   Mostly Cloudy
6:35 PM 33.8 °F 23.9 °F 28.4 °F 81% 30.22 in 10.0 mi ESE 15.0 mph - N/A   Mostly Cloudy
6:55 PM 33.8 °F 24.3 °F 28.4 °F 81% 30.22 in 9.0 mi ESE 13.8 mph 23.0 mph N/A   Mostly Cloudy
7:15 PM 32.0 °F 21.6 °F 28.4 °F 87% 30.21 in 9.0 mi East 15.0 mph - N/A   Scattered Clouds
7:35 PM 32.0 °F 22.5 °F 28.4 °F 87% 30.20 in 9.0 mi East 12.7 mph - N/A   Mostly Cloudy
7:55 PM 32.0 °F 22.1 °F 28.4 °F 87% 30.21 in 10.0 mi East 13.8 mph - N/A   Mostly Cloudy
8:15 PM 30.2 °F 20.2 °F 28.4 °F 93% 30.22 in 10.0 mi East 12.7 mph 17.3 mph N/A   Overcast
8:35 PM 32.0 °F 24.2 °F 28.4 °F 87% 30.23 in 10.0 mi East 9.2 mph - N/A   Overcast
8:55 PM 32.0 °F 22.5 °F 28.4 °F 87% 30.22 in 10.0 mi East 12.7 mph - N/A   Mostly Cloudy
9:15 PM 32.0 °F 22.1 °F 30.2 °F 93% 30.22 in 10.0 mi ESE 13.8 mph - N/A   Mostly Cloudy
9:35 PM 32.0 °F 22.5 °F 30.2 °F 93% 30.21 in 10.0 mi ESE 12.7 mph - N/A   Overcast
9:55 PM 33.8 °F 25.8 °F 28.4 °F 81% 30.22 in 10.0 mi ESE 10.4 mph - N/A   Overcast
10:15 PM 33.8 °F 27.7 °F 28.4 °F 81% 30.22 in 10.0 mi East 6.9 mph - N/A   Overcast
10:35 PM 33.8 °F 25.3 °F 30.2 °F 87% 30.21 in 10.0 mi East 11.5 mph - N/A   Overcast
10:55 PM 33.8 °F 25.8 °F 28.4 °F 81% 30.21 in 10.0 mi East 10.4 mph - N/A   Mostly Cloudy
11:15 PM 33.8 °F 25.8 °F 28.4 °F 81% 30.20 in 10.0 mi East 10.4 mph - N/A   Clear
11:35 PM 33.8 °F 25.3 °F 28.4 °F 81% 30.20 in 10.0 mi East 11.5 mph - N/A   Mostly Cloudy
11:55 PM 33.8 °F 26.4 °F 28.4 °F 81% 30.21 in 10.0 mi East 9.2 mph - N/A   Overcast